FW3877 Weather Reports


time (UTC)temp
C
wind
direction
speed
KPH
gust
KPH
rain 1hr
cm
rain 24hr
cm
rain mn
cm
humidity
%
barometer
mb
20260831181704 14 233 9.7 16.1 0.05 0.48 0.15 92 1015.2
20260831181203 14 242 9.7 19.3 0.05 0.46 0.13 92 1015.2
20260831180203 14 229 8.0 14.5 0.00 0.43 0.08 92 1015.1
20260831175703 14 228 6.4 12.9 0.00 0.43 0.08 92 1015.1
20260831175204 14 238 8.0 19.3 0.00 0.43 0.08 92 1015.2
20260831174704 14 232 6.4 16.1 0.00 0.43 0.08 92 1015.0
20260831174204 14 229 8.0 12.9 0.00 0.43 0.08 92 1015.1
20260831173204 13 177 9.7 14.5 0.00 0.43 0.08 92 1015.0
20260831172204 13 193 4.8 12.9 0.00 0.43 0.08 92 1015.0
20260831171703 13 181 8.0 14.5 0.00 0.43 0.08 92 1015.1
20260831171203 13 189 6.4 9.7 0.00 0.43 0.08 92 1015.2
20260831170204 13 222 8.0 14.5 0.00 0.43 0.08 92 1015.1
20260831165704 13 218 8.0 12.9 0.03 0.43 0.08 92 1015.2
20260831165204 13 225 8.0 12.9 0.03 0.43 0.08 92 1015.2
20260831164204 13 210 9.7 14.5 0.03 0.43 0.08 91 1015.3
20260831163703 13 238 4.8 12.9 0.03 0.43 0.08 91 1015.2
20260831163203 13 227 8.0 12.9 0.03 0.43 0.08 91 1015.3
20260831162704 13 236 6.4 14.5 0.03 0.43 0.08 91 1015.2
20260831162205 13 243 6.4 16.1 0.03 0.43 0.08 90 1015.3
20260831161705 13 236 9.7 20.9 0.03 0.43 0.08 90 1015.2
20260831161204 13 244 12.9 27.4 0.03 0.43 0.08 89 1015.4
20260831160203 14 255 9.7 22.5 0.05 0.43 0.08 88 1015.2
20260831155703 14 244 16.1 24.1 0.03 0.43 0.05 87 1015.3
20260831155204 15 226 11.3 22.5 0.03 0.43 0.05 87 1015.0
20260831154705 15 233 9.7 19.3 0.03 0.43 0.05 89 1014.9
20260831154204 15 227 9.7 19.3 0.03 0.43 0.05 89 1014.9
20260831153705 15 238 8.0 14.5 0.03 0.43 0.05 89 1015.0
20260831153204 14 239 9.7 14.5 0.03 0.48 0.05 89 1015.0
20260831152704 14 223 8.0 12.9 0.03 0.51 0.05 89 1015.1
20260831152203 14 237 8.0 14.5 0.03 0.61 0.05 88 1015.1
20260831151204 13 248 8.0 16.1 0.03 0.79 0.05 86 1015.1
20260831150704 14 258 9.7 19.3 0.03 0.81 0.05 85 1015.2
20260831145704 15 240 9.7 16.1 0.00 1.80 0.05 82 1015.1
20260831145204 15 222 11.3 19.3 0.00 1.93 0.05 80 1015.0
20260831144704 15 217 9.7 14.5 0.00 1.93 0.05 80 1014.9
20260831144204 15 268 8.0 14.5 0.00 1.93 0.05 79 1015.0
20260831143704 15 252 8.0 16.1 0.00 1.93 0.05 79 1014.9
20260831142704 15 265 9.7 19.3 0.00 1.93 0.05 79 1014.9
20260831142203 15 247 11.3 19.3 0.00 1.93 0.05 78 1014.8
20260831141704 15 243 11.3 19.3 0.00 1.93 0.05 78 1014.8
20260831141204 15 264 11.3 19.3 0.00 1.93 0.05 79 1014.9
20260831140203 16 245 6.4 19.3 0.00 1.93 0.05 79 1014.8
20260831135704 15 252 9.7 19.3 0.00 1.93 0.05 79 1014.8
20260831135204 15 267 8.0 19.3 0.00 1.93 0.05 79 1014.7
20260831134704 15 275 9.7 16.1 0.00 1.93 0.05 79 1014.6
20260831134204 15 251 11.3 19.3 0.00 1.93 0.05 78 1014.6
20260831133703 15 265 9.7 24.1 0.00 1.93 0.05 78 1014.6
20260831133204 15 256 8.0 19.3 0.00 1.93 0.05 79 1014.6
20260831132705 15 264 8.0 16.1 0.00 1.93 0.05 79 1014.5
20260831132204 15 266 11.3 19.3 0.00 1.93 0.05 79 1014.4
20260831131705 15 259 11.3 20.9 0.00 1.93 0.05 79 1014.5
20260831131205 15 249 11.3 20.9 0.00 1.93 0.05 79 1014.4
20260831130704 15 254 9.7 16.1 0.00 1.93 0.05 79 1014.4
20260831130203 15 251 12.9 19.3 0.00 1.93 0.05 78 1014.4
20260831125204 16 262 9.7 19.3 0.00 1.98 0.05 77 1014.3
20260831124703 16 269 9.7 19.3 0.00 1.98 0.05 77 1014.3
20260831124204 16 261 9.7 19.3 0.00 1.98 0.05 77 1014.2
20260831123704 16 267 11.3 19.3 0.00 1.98 0.05 77 1014.2
20260831123204 16 245 8.0 16.1 0.00 1.98 0.05 78 1014.3
20260831121704 16 276 9.7 19.3 0.00 1.98 0.05 79 1014.2
20260831121204 16 297 8.0 20.9 0.00 1.98 0.05 81 1014.1
20260831115704 15 251 14.5 20.9 0.00 1.98 0.05 80 1014.3
20260831114705 15 257 9.7 16.1 0.00 1.98 0.05 81 1014.2
20260831113704 15 273 9.7 19.3 0.00 1.98 0.05 81 1014.1
20260831113204 15 260 9.7 19.3 0.00 1.98 0.05 81 1014.0
20260831112704 15 266 9.7 19.3 0.00 1.98 0.05 81 1014.0
20260831112203 15 270 9.7 22.5 0.00 1.98 0.05 82 1014.0
20260831111704 15 275 6.4 20.9 0.00 1.98 0.05 82 1013.9
20260831111204 15 279 9.7 16.1 0.00 1.98 0.05 83 1013.9
20260831110704 14 278 8.0 19.3 0.00 1.98 0.05 82 1013.9
20260831110204 14 278 8.0 14.5 0.00 1.98 0.05 82 1013.8
20260831105704 14 288 11.3 19.3 0.00 1.98 0.05 82 1013.8
20260831105204 14 272 8.0 16.1 0.00 1.98 0.05 82 1013.7
20260831104705 15 294 8.0 16.1 0.00 1.98 0.05 83 1013.7
20260831104204 15 267 6.4 14.5 0.00 1.98 0.05 84 1013.7
20260831103704 14 277 9.7 16.1 0.00 1.98 0.05 84 1013.7
20260831103204 14 275 6.4 14.5 0.00 1.98 0.05 84 1013.7
20260831102704 14 275 3.2 4.8 0.00 1.98 0.05 84 1013.5
20260831102204 14 300 4.8 9.7 0.00 1.98 0.05 84 1013.7
20260831101704 14 298 8.0 14.5 0.00 1.98 0.05 83 1013.7
20260831101205 14 280 11.3 16.1 0.00 1.98 0.05 83 1013.5
20260831100704 14 269 4.8 12.9 0.00 1.98 0.05 85 1013.6
20260831100204 13 278 6.4 11.3 0.00 1.98 0.05 85 1013.6
20260831095704 13 260 8.0 19.3 0.00 1.98 0.05 85 1013.4
20260831095204 13 279 9.7 20.9 0.00 1.98 0.05 86 1013.3
20260831094704 13 277 8.0 19.3 0.00 1.98 0.05 86 1013.4
20260831094204 13 282 9.7 16.1 0.00 1.98 0.05 87 1013.3
20260831093704 13 300 8.0 19.3 0.00 1.98 0.05 88 1013.2
20260831093204 13 291 8.0 16.1 0.00 1.98 0.05 89 1013.2
20260831092704 13 293 6.4 16.1 0.00 1.98 0.05 90 1013.1
20260831092205 13 290 6.4 20.9 0.00 1.98 0.05 90 1013.0
20260831091204 13 286 9.7 20.9 0.00 1.98 0.05 91 1012.9
20260831090704 13 282 8.0 19.3 0.00 1.98 0.05 93 1012.9
20260831090204 13 279 11.3 19.3 0.00 1.98 0.05 93 1012.9
20260831085704 13 269 8.0 19.3 0.00 1.98 0.05 94 1012.8
20260831085204 13 299 8.0 19.3 0.00 1.98 0.05 95 1012.8
20260831084704 13 268 6.4 12.9 0.00 1.98 0.05 95 1012.6
20260831084204 13 278 6.4 14.5 0.00 1.98 0.05 95 1012.6
20260831083704 12 263 9.7 16.1 0.00 1.98 0.05 95 1012.5
20260831083204 12 266 6.4 14.5 0.00 1.98 0.05 95 1012.5
20260831082704 12 270 4.8 11.3 0.00 1.98 0.05 95 1012.5
20260831082204 12 264 8.0 14.5 0.00 1.98 0.05 95 1012.4
20260831081704 12 275 6.4 12.9 0.03 1.98 0.05 95 1012.4
20260831081204 12 255 8.0 14.5 0.03 1.98 0.05 96 1012.3
20260831080704 12 255 8.0 14.5 0.03 1.98 0.05 95 1012.2
20260831080204 12 266 4.8 12.9 0.03 1.98 0.05 95 1012.2
20260831075704 12 263 8.0 14.5 0.03 1.98 0.05 95 1012.2
20260831075204 11 260 8.0 11.3 0.03 1.98 0.05 95 1012.1
20260831074204 11 280 3.2 9.7 0.03 1.98 0.05 95 1012.1
20260831073704 11 274 4.8 12.9 0.03 1.98 0.05 95 1012.0
20260831073203 11 308 4.8 19.3 0.03 1.98 0.05 95 1012.0
20260831072704 11 276 4.8 16.1 0.03 1.98 0.05 95 1012.0
20260831072204 11 280 8.0 19.3 0.03 1.98 0.05 95 1011.9
20260831071704 11 281 9.7 14.5 0.00 1.96 0.03 95 1012.0
20260831071204 11 233 8.0 12.9 0.00 1.96 0.03 95 1011.7
20260831070704 11 253 9.7 16.1 0.00 1.96 0.03 95 1011.7
20260831070203 11 247 4.8 11.3 0.00 1.96 0.03 95 1011.5
20260831065205 11 233 4.8 8.0 0.00 1.96 0.03 95 1011.5
20260831064704 11 237 3.2 4.8 0.00 1.96 0.03 95 1011.3
20260831064204 11 229 4.8 8.0 0.00 1.96 0.03 95 1011.2
20260831063704 11 236 4.8 4.8 0.00 1.96 0.03 95 1011.2
20260831063204 11 237 4.8 8.0 0.00 1.96 0.03 95 1010.9
20260831062204 11 232 3.2 4.8 0.03 1.96 0.03 95 1010.9
20260831061704 11 256 3.2 4.8 0.03 1.96 0.03 95 1010.8
20260831061204 11 222 3.2 4.8 0.03 1.96 0.03 95 1010.8
20260831060705 11 223 3.2 4.8 0.03 1.96 0.03 95 1010.7
20260831055704 11 244 4.8 9.7 0.03 1.96 0.03 95 1010.7
20260831055204 11 267 3.2 8.0 0.03 1.96 0.03 95 1010.4
20260831054704 11 85 1.6 3.2 0.03 1.96 0.03 95 1010.3
20260831053704 11 257 3.2 4.8 0.03 1.96 0.03 95 1010.3
20260831053204 11 259 3.2 8.0 0.03 1.96 0.03 95 1010.1
20260831051704 11 247 4.8 4.8 0.00 1.93 0.00 95 1009.9
20260831051204 11 248 4.8 9.7 0.00 1.93 0.00 95 1009.9
20260831050703 11 251 4.8 9.7 0.00 1.93 0.00 95 1009.7
20260831050204 11 241 4.8 8.0 0.00 1.93 0.00 95 1009.7
20260831045704 11 248 4.8 12.9 0.00 1.93 0.00 95 1009.7
20260831044704 11 276 4.8 12.9 0.00 1.93 0.00 95 1009.5
20260831043204 11 338 1.6 8.0 0.00 1.93 0.00 95 1009.3
20260831042204 11 315 1.6 8.0 0.00 1.93 0.00 95 1009.1
20260831041704 11 300 1.6 4.8 0.00 1.93 0.00 95 1009.0
20260831040203 11 287 8.0 16.1 0.00 1.93 0.00 95 1008.7
20260831035705 11 299 6.4 19.3 0.00 1.93 0.00 95 1008.7
20260831035204 11 292 3.2 12.9 0.00 1.93 0.00 95 1008.8
20260831034705 11 299 3.2 9.7 0.00 1.93 0.00 95 1008.7
20260831034204 11 277 4.8 11.3 0.00 1.93 0.00 95 1008.5
20260831033705 11 275 3.2 9.7 0.00 1.93 0.00 95 1008.5
20260831033204 11 269 6.4 14.5 0.00 1.93 0.00 95 1008.4
20260831032704 11 267 4.8 12.9 0.00 1.93 0.00 95 1008.4
20260831032204 11 281 8.0 14.5 0.00 1.93 0.00 95 1008.4
20260831031704 11 289 3.2 8.0 0.00 1.93 0.00 95 1008.4
20260831030705 11 281 4.8 12.9 0.00 1.93 0.00 95 1008.2
20260831030204 11 292 3.2 11.3 0.00 1.93 0.00 95 1008.2
20260831025704 11 289 3.2 14.5 0.00 1.93 0.00 95 1008.1
20260831025205 11 285 4.8 14.5 0.00 1.93 0.00 95 1008.1
20260831024704 11 308 3.2 9.7 0.00 1.93 0.00 95 1008.1
20260831024203 12 278 3.2 9.7 0.00 1.93 0.00 95 1008.1
20260831023704 11 299 3.2 9.7 0.00 1.93 0.00 96 1008.1
20260831023205 11 276 1.6 4.8 0.00 1.93 0.00 96 1007.9
20260831021704 12 316 4.8 14.5 0.00 1.93 0.00 95 1007.8
20260831021204 12 297 4.8 12.9 0.00 1.93 0.00 96 1007.7
20260831015704 12 352 3.2 8.0 0.00 1.93 0.00 96 1007.4
20260831015204 12 261 1.6 8.0 0.00 1.93 0.00 96 1007.3
20260831014703 12 286 1.6 8.0 0.00 1.93 0.00 96 1007.1
20260831014204 12 298 3.2 8.0 0.00 1.93 0.00 96 1007.1
20260831013704 12 283 3.2 8.0 0.00 1.93 0.00 96 1007.1
20260831012704 12 318 3.2 4.8 0.00 1.93 0.00 96 1007.2
20260831012204 12 322 3.2 11.3 0.00 1.93 0.00 96 1007.1
20260831011704 12 310 3.2 4.8 0.00 1.93 0.00 96 1007.1
20260831011204 13 330 3.2 9.7 0.00 1.93 0.00 96 1007.1
20260831010205 13 294 1.6 11.3 0.00 1.93 0.00 96 1006.8
20260831005704 13 322 4.8 9.7 0.00 1.93 0.00 96 1006.8
20260831005204 13 314 6.4 11.3 0.00 1.93 0.00 96 1006.8
20260831004204 13 313 3.2 4.8 0.00 1.93 0.00 96 1006.6
20260831003704 13 309 4.8 11.3 0.00 1.93 0.00 96 1006.5
20260831003204 13 330 3.2 8.0 0.00 1.93 0.00 96 1006.3
20260831002704 13 281 3.2 12.9 0.00 1.93 0.00 96 1006.3
20260831002204 13 284 4.8 14.5 0.00 1.93 0.00 96 1006.3
20260831001704 13 280 1.6 9.7 0.00 1.93 0.00 96 1006.3
20260831001205 13 262 1.6 3.2 0.00 1.93 0.00 96 1006.2
20260831000704 13 283 3.2 4.8 0.00 1.93 0.00 96 1006.2
20260831000204 13 321 3.2 4.8 0.00 1.93 0.00 96 1006.1
20260830235704 13 305 1.6 3.2 0.00 1.93 0.00 96 1006.0
20260830234704 13 323 3.2 8.0 0.00 1.93 0.00 96 1005.9
20260830234204 13 327 3.2 4.8 0.00 1.93 0.00 96 1005.9
20260830233704 13 304 3.2 12.9 0.00 1.93 0.00 96 1005.8
20260830233204 13 327 3.2 4.8 0.00 1.93 0.00 96 1005.8
20260830232704 13 313 3.2 4.8 0.00 1.93 0.00 96 1005.6
20260830232204 13 280 1.6 4.8 0.05 1.93 0.00 96 1005.6
20260830231705 13 324 1.6 4.8 0.05 1.93 0.00 96 1005.5
20260830230705 13 278 3.2 4.8 0.20 1.93 0.00 96 1005.4
20260830230204 13 299 1.6 9.7 0.20 1.93 0.00 96 1005.3
20260830225704 13 273 3.2 8.0 0.20 1.93 1.93 96 1005.2
20260830225204 14 327 1.6 4.8 0.20 1.93 1.93 96 1005.0
20260830224704 14 333 3.2 11.3 0.20 1.93 1.93 96 1004.9
20260830224204 14 306 3.2 9.7 0.20 1.93 1.93 96 1004.8
20260830223705 14 323 4.8 9.7 0.20 1.93 1.93 96 1004.7
20260830223204 14 338 3.2 8.0 0.20 1.93 1.93 96 1004.6
20260830222704 14 321 1.6 8.0 0.20 1.93 1.93 96 1004.6
20260830222204 14 328 3.2 4.8 0.18 1.93 1.93 96 1004.5
20260830221203 14 281 1.6 16.1 0.15 1.88 1.88 96 1004.3
20260830220704 14 305 3.2 9.7 0.03 1.75 1.75 96 1004.3
20260830220204 14 329 0.0 1.6 0.00 1.75 1.75 96 1004.1
20260830215704 14 329 1.6 3.2 0.00 1.75 1.75 95 1004.1
20260830215204 14 332 3.2 4.8 0.00 1.75 1.75 95 1004.0
20260830214704 14 292 3.2 4.8 0.00 1.75 1.75 96 1004.0
20260830214204 14 331 1.6 4.8 0.00 1.75 1.75 96 1003.8
20260830213704 14 327 1.6 4.8 0.00 1.75 1.75 96 1003.8
20260830212704 14 13 1.6 4.8 0.00 1.75 1.75 95 1003.7
20260830212204 14 355 0.0 0.0 0.00 1.75 1.75 96 1003.6
20260830211704 14 355 0.0 0.0 0.00 1.75 1.75 96 1003.5
20260830211204 14 355 0.0 0.0 0.00 1.75 1.75 96 1003.5
20260830210204 14 355 0.0 0.0 0.00 1.75 1.75 95 1003.4
20260830205704 14 355 0.0 0.0 0.00 1.75 1.75 95 1003.4
20260830205204 13 355 0.0 0.0 0.00 1.75 1.75 95 1003.3
20260830204204 13 355 0.0 1.6 0.00 1.75 1.75 95 1003.2
20260830203704 13 355 0.0 3.2 0.00 1.75 1.75 95 1003.1
20260830203204 13 355 0.0 1.6 0.00 1.75 1.75 95 1003.1
20260830202704 13 355 0.0 1.6 0.00 1.75 1.75 95 1003.0
20260830202204 14 355 1.6 4.8 0.00 1.75 1.75 95 1003.0
20260830201704 14 5 0.0 3.2 0.00 1.75 1.75 95 1003.0
20260830201204 14 32 0.0 3.2 0.00 1.75 1.75 95 1002.9
20260830200704 14 14 1.6 4.8 0.00 1.75 1.75 95 1002.9
20260830200204 14 355 1.6 3.2 0.00 1.75 1.75 95 1002.8
20260830195703 14 20 1.6 3.2 0.00 1.75 1.75 95 1002.7
20260830195204 14 349 1.6 4.8 0.00 1.75 1.75 95 1002.6
20260830194704 14 10 1.6 4.8 0.03 1.75 1.75 95 1002.6
20260830194204 15 340 3.2 4.8 0.03 1.75 1.75 95 1002.4
20260830192704 15 0 3.2 4.8 0.05 1.75 1.75 95 1002.2
20260830192204 15 8 3.2 12.9 0.15 1.75 1.75 95 1002.2
20260830191203 15 13 3.2 4.8 0.15 1.75 1.75 94 1002.0
20260830190704 15 4 4.8 11.3 0.15 1.75 1.75 95 1001.9
20260830190204 15 7 9.7 19.3 0.15 1.75 1.75 94 1001.7
20260830185704 15 346 4.8 11.3 0.15 1.75 1.75 95 1001.7
20260830185203 15 8 3.2 9.7 0.15 1.75 1.75 94 1001.7
20260830184703 15 335 4.8 14.5 0.13 1.73 1.73 94 1001.6
20260830184204 15 17 4.8 14.5 0.13 1.73 1.73 94 1001.5
20260830183704 15 14 4.8 8.0 0.13 1.73 1.73 94 1001.4
20260830183204 15 357 4.8 14.5 0.13 1.73 1.73 94 1001.4
20260830182704 15 12 4.8 16.1 0.10 1.70 1.70 94 1001.3
20260830182203 15 5 6.4 12.9 0.00 1.60 1.60 94 1001.3